Weather in Gangtok

India     27°19′25″N   88°36′34″E
temp.,
°C
wind,
m/s
gust,
m/s
humid.,
%
clouds,
%
prec.,
mm/h
press.,
hPa
HPBL,
m
2 december, thu
thu223:30+11nne22675 0.0 101926
02:30+10nne22656 0.0 101830
05:30+10nne226112 0.0 101823
08:30+17w014998 0.0 1018216
11:30+21ssw224484 0.0 1016911
14:30+20s224994 0.0 1013960
17:30+12nne118064 0.0 101615
20:30+11n118110 0.0 101813
3 december, fri
fri323:30+11nne22785 0.0 101815
02:30+10nne22730 0.0 101719
05:30+10n11695 0.0 101813
08:30+16wsw01575 0.0 1019292
11:30+20ssw225094 0.0 10161037
14:30+19s2252100 0.0 10141118
17:30+12ne118030 0.0 101711
20:30+12nne1180100 0.0 101913
4 december, sat
sat423:30+12nne118196 0.0 101811
02:30+11nne118021 0.0 101713
05:30+11nne2278100 0.0 101721
08:30+17sw11615 0.0 1018294
11:30+20ssw225138 0.0 10161064
14:30+20s215222 0.0 10141046
17:30+13ese117824 0.0 101711
20:30+11nne228696 0.0 102024
5 december, sun
sun523:30+11nne228247 0.0 102022
02:30+10n22741 0.0 101821
05:30+10nne22650 0.0 101920
08:30+16w01490 0.0 1019238
11:30+21ssw22500 0.0 1016893
14:30+20s21520 0.0 10131074
17:30+13ne11845 0.0 101512
20:30+12nne228459 0.0 101822
6 december, mon
mon623:30+11n227523 0.0 101724
02:30+11n226515 0.0 101621
05:30+11nne22630 0.0 101623
08:30+17w01460 0.0 1017214
11:30+21ssw21450 0.0 1013823
14:30+20s22480 0.0 10101027
17:30+12ne11845 0.0 101312
20:30+13ne227041 0.0 101531